This is the latest recevied weather packets stored in our database for station/object KJ5FA-10. If no packets are shown the sender has not sent any weather packets the latest 1 day(s).
| Time | Temp. | Humidity | Pressure | Rain* | Wind** | Luminosity | Snow |
|---|---|---|---|---|---|---|---|
| 1778016268 | 22.22° C | 90% | 1006.9 hPa | 0 mm | 0.45 m/s, 200° | - | - |
| 1778015368 | 21.67° C | 92% | 1007.2 hPa | 0 mm | 0.89 m/s, 233° | - | - |
| 1778014468 | 21.11° C | 92% | 1007.4 hPa | 0 mm | 0 m/s | - | - |
| 1778013568 | 21.11° C | 93% | 1007.5 hPa | 0 mm | 0.89 m/s, 166° | - | - |
| 1778012667 | 20.56° C | 93% | 1007.7 hPa | 0 mm | 0.89 m/s, 155° | - | - |
| 1778011767 | 20.56° C | 94% | 1007.3 hPa | 0 mm | 0.45 m/s, 99° | - | - |
| 1778010868 | 20° C | 96% | 1007.5 hPa | 0 mm | 0.45 m/s, 163° | - | - |
| 1778009968 | 20° C | 96% | 1007.4 hPa | 0 mm | 0.45 m/s, 153° | - | - |
| 1778009068 | 20° C | 96% | 1007.9 hPa | 0 mm | 0.89 m/s, 100° | - | - |
| 1778008169 | 19.44° C | 96% | 1007.8 hPa | 0 mm | 0.89 m/s, 149° | - | - |
| 1778006368 | 19.44° C | 96% | 1008.1 hPa | 0 mm | 0.45 m/s, 132° | - | - |
| 1778005468 | 18.89° C | 96% | 1008.2 hPa | 0 mm | 0.45 m/s, 157° | - | - |
| 1778004568 | 18.89° C | 96% | 1008.4 hPa | 0 mm | 0.89 m/s, 11° | - | - |
| 1778003668 | 18.89° C | 96% | 1008.3 hPa | 0 mm | 1.34 m/s, 166° | - | - |
| 1778002768 | 18.89° C | 96% | 1008.6 hPa | 0 mm | 2.24 m/s, 148° | - | - |
| 1778001868 | 18.89° C | 96% | 1008.7 hPa | 0 mm | 0.89 m/s, 208° | - | - |
| 1777999168 | 18.33° C | 96% | 1008.9 hPa | 0 mm | 0.89 m/s, 94° | - | - |
| 1777998267 | 18.89° C | 96% | 1008.9 hPa | 0 mm | 0.89 m/s, 130° | - | - |
| 1777997367 | 18.33° C | 96% | 1009 hPa | 0 mm | 0.89 m/s, 116° | - | - |
| 1777996468 | 18.33° C | 96% | 1008.9 hPa | 0 mm | 1.79 m/s, 169° | - | - |
| 1777995568 | 18.33° C | 96% | 1008.8 hPa | 0 mm | 0.89 m/s, 208° | - | - |
| 1777994668 | 18.33° C | 96% | 1009.1 hPa | 0 mm | 0.89 m/s, 157° | - | - |
| 1777993768 | 18.33° C | 96% | 1008.8 hPa | 0 mm | 0.89 m/s, 156° | - | - |
| 1777992868 | 18.33° C | 96% | 1008.8 hPa | 0 mm | 0.89 m/s, 128° | - | - |
| 1777991968 | 18.33° C | 95% | 1009.1 hPa | 0 mm | 1.34 m/s, 173° | - | - |
* Rain latest hour (hover to see other rain measurements)
** Current wind speed in m/s (hover to see current wind gust speed)